Powrót do katalogu

STARLINK-4147

AktywnyŁącznośćVLEO
NORAD 53256·PAYLOAD·🇺🇸 United States

Wystrzelony Jul 24, 2022 z Cape Canaveral Space Force Station

Loading…

Następne Przeloty (najbliższe 24 godziny)

TLE

ŚwieżeSource: CelesTrak SupGP

Epoka: Sep 15, 2026, 02:57 UTC

1 53256C 22086Q   26258.12340278  .00676480  00000+0  24745-1 0  2580
2 53256  53.1608  62.2571 0001174  76.7775 255.5424 15.27186385    15

Śledź STARLINK-4147 w czasie rzeczywistym z AllMySat

Download on the App Store